GW7426 Weather Reports


time (UTC)temp
C
wind
direction
speed
KPH
gust
KPH
rain 1hr
cm
rain 24hr
cm
rain mn
cm
humidity
%
barometer
mb
20260906234218 15 106 3.2 3.2 0.00 0.18 0.18 81 1016.2
20260906233718 15 74 1.6 1.6 0.00 0.18 0.18 82 1016.4
20260906233118 15 73 0.0 1.6 0.00 0.18 0.18 80 1016.3
20260906232618 15 73 0.0 1.6 0.00 0.18 0.18 80 1016.4
20260906231818 15 78 3.2 3.2 0.00 0.18 0.18 82 1016.3
20260906231318 15 68 1.6 3.2 0.00 0.18 0.18 82 1016.5
20260906230818 15 81 0.0 1.6 0.00 0.18 0.18 82 1016.6
20260906230318 15 110 0.0 0.0 0.00 0.18 0.18 83 1016.6
20260906225818 15 95 1.6 3.2 0.00 0.18 0.18 82 1016.6
20260906225218 15 113 1.6 3.2 0.00 0.18 0.18 84 1016.8
20260906224618 15 111 1.6 1.6 0.00 0.18 0.18 84 1016.9
20260906224117 15 111 0.0 3.2 0.00 0.18 0.18 85 1016.6
20260906223418 14 101 3.2 3.2 0.00 0.18 0.18 84 1016.8
20260906222717 14 88 0.0 3.2 0.00 0.18 0.18 86 1016.8
20260906222217 14 95 0.0 3.2 0.00 0.18 0.18 85 1016.6
20260906221617 14 89 3.2 3.2 0.00 0.18 0.18 85 1016.8
20260906221017 14 90 1.6 3.2 0.00 0.18 0.18 85 1017.0
20260906220419 14 89 1.6 1.6 0.00 0.18 0.18 85 1017.0
20260906215718 14 88 0.0 1.6 0.00 0.18 0.18 86 1017.0
20260906215119 14 65 1.6 3.2 0.00 0.18 0.18 86 1016.9
20260906214618 14 65 1.6 3.2 0.00 0.18 0.18 86 1017.0
20260906214018 14 65 0.0 1.6 0.00 0.18 0.18 87 1017.1
20260906213518 14 65 0.0 1.6 0.00 0.18 0.18 88 1016.9
20260906212920 14 64 0.0 0.0 0.00 0.18 0.18 89 1016.8
20260906212418 13 64 0.0 1.6 0.00 0.18 0.18 88 1017.1
20260906211818 13 64 0.0 1.6 0.00 0.18 0.18 89 1017.1
20260906211218 13 64 0.0 0.0 0.00 0.18 0.18 90 1017.1
20260906210719 13 64 1.6 1.6 0.00 0.18 0.18 91 1017.1
20260906210217 13 64 0.0 1.6 0.00 0.18 0.18 92 1017.1
20260906205617 13 64 0.0 0.0 0.00 0.18 0.18 92 1017.2
20260906205017 13 63 0.0 0.0 0.00 0.18 0.18 92 1017.2
20260906204517 13 64 0.0 0.0 0.00 0.18 0.18 92 1017.3
20260906203919 13 64 0.0 1.6 0.00 0.18 0.18 93 1017.1
20260906203417 13 41 0.0 1.6 0.00 0.18 0.18 93 1016.9
20260906202918 13 32 1.6 3.2 0.00 0.18 0.18 93 1017.3
20260906202418 13 80 1.6 1.6 0.00 0.18 0.18 95 1017.3
20260906201817 12 78 0.0 1.6 0.00 0.18 0.18 93 1017.2
20260906201218 12 77 0.0 0.0 0.00 0.18 0.18 93 1017.4
20260906200618 12 87 0.0 1.6 0.00 0.18 0.18 94 1017.4
20260906200117 12 87 0.0 0.0 0.00 0.18 0.18 96 1017.4
20260906195517 12 87 0.0 0.0 0.00 0.18 0.18 95 1017.3
20260906194917 12 89 0.0 1.6 0.00 0.18 0.18 94 1017.5
20260906194319 12 68 1.6 0.0 0.00 0.18 0.18 94 1017.5
20260906193717 12 67 0.0 1.6 0.03 0.18 0.18 94 1017.7
20260906193118 12 67 1.6 1.6 0.03 0.18 0.18 96 1017.7
20260906192618 12 67 0.0 1.6 0.03 0.18 0.18 96 1017.5
20260906192117 12 66 1.6 1.6 0.03 0.18 0.18 97 1017.9
20260906191617 12 40 0.0 0.0 0.03 0.18 0.18 98 1017.7
20260906191017 12 62 0.0 0.0 0.03 0.18 0.18 98 1017.7
20260906190517 11 70 1.6 1.6 0.03 0.18 0.18 98 1017.7
20260906185918 11 78 3.2 3.2 0.03 0.18 0.18 98 1017.7
20260906185318 11 70 0.0 1.6 0.03 0.18 0.18 98 1017.9
20260906184817 11 72 1.6 1.6 0.03 0.18 0.18 98 1017.9
20260906184218 11 71 1.6 1.6 0.03 0.15 0.15 98 1018.1
20260906183618 11 41 0.0 1.6 0.03 0.15 0.15 98 1018.2
20260906183117 11 40 1.6 1.6 0.03 0.15 0.15 98 1018.4
20260906182519 11 60 1.6 3.2 0.03 0.15 0.15 98 1018.0
20260906181919 11 61 0.0 0.0 0.03 0.15 0.15 98 1018.2
20260906181318 11 45 0.0 3.2 0.03 0.15 0.15 98 1018.1
20260906180818 11 339 0.0 1.6 0.03 0.15 0.15 97 1018.1
20260906180317 11 339 0.0 3.2 0.03 0.15 0.15 97 1018.2
20260906175718 11 339 0.0 0.0 0.03 0.15 0.15 98 1018.1
20260906175117 10 338 0.0 1.6 0.03 0.15 0.15 97 1018.2
20260906174617 10 339 0.0 1.6 0.00 0.13 0.13 97 1018.4
20260906174018 10 338 0.0 0.0 0.00 0.13 0.13 97 1018.3
20260906173519 10 338 1.6 1.6 0.00 0.13 0.13 97 1018.5
20260906172917 10 338 0.0 0.0 0.00 0.13 0.13 97 1018.4
20260906172317 10 338 1.6 1.6 0.00 0.13 0.13 96 1018.5
20260906171817 10 338 0.0 0.0 0.00 0.13 0.13 96 1018.6
20260906171217 10 338 0.0 0.0 0.00 0.13 0.13 96 1018.6
20260906170718 10 338 0.0 0.0 0.00 0.13 0.13 96 1018.7
20260906170120 10 338 0.0 0.0 0.00 0.13 0.13 95 1018.6
20260906164318 10 338 0.0 0.0 0.00 0.13 0.13 96 1018.9
20260906163718 10 338 0.0 0.0 0.00 0.13 0.13 96 1019.1
20260906154119 8 338 0.0 0.0 0.00 0.13 0.13 96 1019.2
20260906153418 8 338 0.0 0.0 0.00 0.13 0.13 96 1019.4
20260906152918 8 338 0.0 0.0 0.00 0.13 0.13 97 1019.3
20260906152318 8 329 1.6 1.6 0.00 0.13 0.13 97 1019.3
20260906151718 8 329 1.6 1.6 0.00 0.13 0.13 97 1019.2
20260906151118 8 277 1.6 3.2 0.00 0.13 0.13 97 1019.0
20260906150518 8 323 3.2 4.8 0.00 0.13 0.13 97 1019.0
20260906150018 8 318 3.2 3.2 0.00 0.13 0.13 96 1019.0
20260906145417 9 354 1.6 1.6 0.00 0.13 0.13 97 1019.0
20260906144918 9 354 1.6 1.6 0.00 0.13 0.13 97 1019.1
20260906144418 9 2 1.6 0.0 0.00 0.13 0.13 97 1019.2
20260906143817 9 42 0.0 0.0 0.00 0.13 0.13 97 1019.0
20260906143217 8 43 0.0 0.0 0.00 0.13 0.13 98 1019.3
20260906142718 8 43 0.0 0.0 0.00 0.13 0.13 98 1019.0
20260906142118 8 43 0.0 0.0 0.00 0.13 0.13 98 1019.0
20260906141417 8 48 0.0 0.0 0.00 0.13 0.13 98 1019.2
20260906140717 8 353 0.0 0.0 0.00 0.13 0.13 98 1019.3
20260906135918 8 353 0.0 0.0 0.00 0.13 0.13 98 1019.3
20260906133818 8 330 1.6 1.6 0.03 0.13 0.13 99 1019.4
20260906133218 8 330 1.6 1.6 0.03 0.13 0.13 99 1019.3
20260906132718 8 330 0.0 0.0 0.03 0.13 0.13 99 1019.4
20260906132218 8 330 0.0 0.0 0.05 0.13 0.13 99 1019.3
20260906131618 8 330 0.0 0.0 0.05 0.13 0.13 98 1019.4
20260906131018 8 330 0.0 0.0 0.05 0.13 0.13 98 1019.5
20260906130518 8 330 0.0 0.0 0.05 0.13 0.13 98 1019.6
20260906130018 8 330 0.0 0.0 0.05 0.13 0.13 98 1019.4
20260906125518 8 330 0.0 1.6 0.08 0.13 0.13 98 1019.4
20260906125018 8 330 0.0 0.0 0.10 0.13 0.13 98 1019.4
20260906124419 8 330 0.0 0.0 0.10 0.13 0.13 98 1019.6
20260906123818 8 330 0.0 0.0 0.10 0.10 0.10 98 1019.8
20260906123318 8 330 0.0 0.0 0.10 0.10 0.10 98 1020.1
20260906122718 8 330 0.0 0.0 0.10 0.10 0.10 98 1019.9
20260906122018 8 330 0.0 0.0 0.08 0.08 0.08 97 1020.1
20260906121418 8 330 0.0 1.6 0.08 0.08 0.08 97 1020.0
20260906120818 8 330 0.0 3.2 0.08 0.08 0.08 97 1020.0
20260906120318 8 329 1.6 3.2 0.08 0.08 0.08 97 1019.9
20260906115817 8 331 1.6 1.6 0.05 0.05 0.05 97 1020.4
20260906115018 8 332 0.0 0.0 0.03 0.03 0.03 97 1020.5
20260906114518 8 332 0.0 0.0 0.03 0.03 0.03 97 1020.7
20260906113817 8 332 0.0 0.0 0.00 0.00 0.00 97 1020.7
20260906111418 8 332 0.0 0.0 0.00 0.00 0.00 97 1020.7
20260906110818 8 332 0.0 0.0 0.00 0.00 0.00 97 1021.0
20260906110317 8 332 0.0 0.0 0.00 0.00 0.00 97 1021.0
20260906104917 8 332 0.0 0.0 0.00 0.00 0.00 97 1020.8
20260906104317 8 332 0.0 0.0 0.00 0.00 0.00 97 1021.1
20260906103617 8 336 0.0 0.0 0.00 0.00 0.00 98 1020.8
20260906103117 8 336 0.0 0.0 0.00 0.00 0.00 98 1020.7
20260906102517 8 328 3.2 3.2 0.00 0.00 0.00 98 1021.0
20260906102017 8 328 3.2 3.2 0.00 0.00 0.00 98 1020.5
20260906101417 8 343 0.0 0.0 0.00 0.00 0.00 99 1020.7
20260906100817 8 343 0.0 0.0 0.00 0.00 0.00 99 1020.5
20260906100218 8 343 0.0 0.0 0.00 0.00 0.00 99 1020.7
20260906095618 8 343 0.0 0.0 0.00 0.00 0.00 99 1020.7
20260906095117 8 343 1.6 1.6 0.00 0.00 0.00 99 1020.5
20260906094517 8 343 1.6 1.6 0.00 0.00 0.00 99 1020.7
20260906094017 9 340 0.0 0.0 0.00 0.00 0.00 99 1020.8
20260906093418 9 340 0.0 0.0 0.00 0.00 0.00 99 1021.3
20260906092817 9 340 0.0 1.6 0.00 0.00 0.00 99 1021.1
20260906092318 9 343 0.0 0.0 0.00 0.00 0.00 99 1021.0
20260906090518 9 343 0.0 0.0 0.00 0.00 0.00 99 1021.1
20260906085918 9 343 0.0 0.0 0.00 0.00 0.00 99 1021.1
20260906080317 9 343 0.0 0.0 0.00 0.00 0.00 98 1022.0
20260906075718 9 343 0.0 0.0 0.00 0.00 0.00 98 1022.0
20260906075117 9 343 0.0 0.0 0.00 0.00 0.00 98 1021.9
20260906074417 9 343 0.0 0.0 0.00 0.00 0.00 97 1021.9
20260906073917 9 343 0.0 0.0 0.00 0.00 0.00 97 1021.9
20260906073319 9 343 0.0 0.0 0.00 0.00 0.00 97 1021.7
20260906072818 9 343 0.0 0.0 0.00 0.00 0.00 97 1021.7
20260906072218 9 344 0.0 0.0 0.00 0.00 0.00 97 1021.7
20260906071618 9 344 0.0 0.0 0.00 0.00 0.00 97 1022.1
20260906071118 10 343 0.0 0.0 0.00 0.00 0.00 97 1022.1
20260906070318 10 344 0.0 0.0 0.00 0.00 0.00 97 1022.1
20260906065618 10 343 0.0 0.0 0.00 0.00 0.00 97 1022.2
20260906065118 10 343 0.0 0.0 0.00 0.00 0.00 97 1022.2
20260906064618 10 343 0.0 0.0 0.00 0.00 0.00 97 1022.2
20260906063918 10 343 0.0 0.0 0.00 0.00 0.00 97 1022.3
20260906063419 10 343 0.0 0.0 0.00 0.00 0.00 97 1022.2
20260906062918 10 343 0.0 0.0 0.00 0.00 0.00 97 1022.1
20260906062318 10 343 0.0 0.0 0.00 0.00 0.00 96 1022.2
20260906061720 10 348 1.6 1.6 0.00 0.00 0.00 96 1022.1
20260906061118 10 348 0.0 0.0 0.00 0.00 0.00 95 1022.3
20260906060618 10 348 0.0 0.0 0.00 0.00 0.00 95 1022.3
20260906060118 10 348 0.0 0.0 0.00 0.00 0.00 95 1022.3
20260906055518 10 348 0.0 0.0 0.00 0.51 0.51 95 1022.1
20260906055017 10 349 0.0 0.0 0.00 0.51 0.51 96 1022.1
20260906054519 10 349 1.6 1.6 0.00 0.51 0.51 96 1022.1
20260906053919 10 351 0.0 1.6 0.00 0.51 0.51 96 1022.1
20260906053317 10 351 1.6 1.6 0.00 0.51 0.51 96 1022.2
20260906052818 10 337 1.6 1.6 0.00 0.51 0.51 96 1022.3
20260906052218 10 356 1.6 1.6 0.00 0.51 0.51 97 1022.3
20260906051617 10 8 1.6 1.6 0.00 0.51 0.51 97 1022.4
20260906050918 10 278 3.2 3.2 0.00 0.51 0.51 97 1022.2
20260906050318 10 339 1.6 1.6 0.00 0.51 0.51 97 1022.2
20260906045818 10 339 1.6 1.6 0.00 0.51 0.51 97 1022.4
20260906045218 10 349 0.0 0.0 0.00 0.51 0.51 97 1022.3
20260906044519 10 352 0.0 0.0 0.00 0.51 0.51 97 1022.1
20260906044018 10 359 0.0 1.6 0.00 0.51 0.51 98 1022.4
20260906043518 10 3 0.0 0.0 0.00 0.51 0.51 98 1022.5
20260906042918 10 4 0.0 0.0 0.00 0.51 0.51 98 1022.3
20260906042418 10 4 0.0 0.0 0.00 0.51 0.51 98 1022.2
20260906041818 10 4 0.0 0.0 0.00 0.51 0.51 98 1022.5
20260906041218 10 4 0.0 0.0 0.00 0.51 0.51 97 1022.3
20260906040518 10 4 0.0 0.0 0.00 0.51 0.51 97 1022.2
20260906035918 10 4 0.0 0.0 0.00 0.51 0.51 97 1022.4
20260906035418 10 4 0.0 0.0 0.00 0.51 0.51 97 1022.3
20260906034818 10 4 0.0 0.0 0.00 0.51 0.51 97 1022.3
20260906034218 10 4 0.0 0.0 0.00 0.51 0.51 97 1022.1
20260906033718 10 4 0.0 0.0 0.00 0.51 0.51 97 1022.1
20260906033118 10 4 0.0 0.0 0.00 0.51 0.51 97 1022.0
20260906032518 10 4 0.0 0.0 0.00 0.51 0.51 97 1021.7
20260906032019 10 4 0.0 0.0 0.00 0.51 0.51 97 1021.7
20260906031420 10 4 0.0 0.0 0.00 0.51 0.51 97 1021.5
20260906030818 10 4 0.0 1.6 0.00 0.51 0.51 97 1021.5
20260906030118 10 4 0.0 0.0 0.00 0.51 0.51 97 1021.5
20260906025618 10 4 0.0 0.0 0.00 0.51 0.51 97 1021.4
20260906025118 10 4 0.0 0.0 0.00 0.51 0.51 97 1021.5
20260906024518 10 3 1.6 1.6 0.00 0.51 0.51 97 1021.4
20260906024018 10 4 1.6 1.6 0.00 0.51 0.51 97 1021.2
20260906023518 10 4 0.0 1.6 0.03 0.51 0.51 97 1021.3
20260906022820 10 3 1.6 1.6 0.03 0.51 0.51 97 1021.4
20260906022218 10 4 0.0 1.6 0.03 0.51 0.51 97 1021.4
20260906021619 10 0 3.2 3.2 0.03 0.51 0.51 97 1021.5
20260906021018 10 4 0.0 1.6 0.03 0.51 0.51 97 1021.3
20260906020518 10 4 1.6 1.6 0.03 0.51 0.51 97 1021.5
20260906020018 10 4 0.0 1.6 0.03 0.51 0.51 97 1021.4
20260906015418 10 4 1.6 1.6 0.03 0.51 0.51 96 1021.4
20260906014818 10 5 0.0 1.6 0.03 0.51 0.51 96 1021.5
20260906014318 10 5 0.0 1.6 0.03 0.51 0.51 96 1021.6
20260906013818 10 4 1.6 1.6 0.00 0.48 0.48 96 1021.7
20260906013218 10 5 1.6 1.6 0.00 0.48 0.48 96 1021.5
20260906012618 10 6 0.0 0.0 0.00 0.48 0.48 96 1021.6
20260906012118 10 6 1.6 0.0 0.00 0.48 0.48 96 1021.6
20260906011518 10 6 1.6 3.2 0.00 0.48 0.48 95 1021.5
20260906010918 10 5 3.2 4.8 0.03 0.48 0.48 96 1021.4
20260906010218 10 23 0.0 1.6 0.03 0.48 0.48 96 1021.6
20260906005517 10 12 3.2 3.2 0.03 0.48 0.48 96 1021.5
20260906004917 10 24 0.0 1.6 0.05 0.48 0.48 96 1021.4
20260906004417 10 33 0.0 1.6 0.05 0.48 0.48 95 1021.3
20260906003918 10 28 1.6 3.2 0.05 0.48 0.48 95 1021.3
20260906003317 10 1 0.0 1.6 0.08 0.48 0.48 95 1021.5
20260906002618 10 1 1.6 3.2 0.08 0.48 0.48 95 1021.3
20260906002117 10 1 0.0 1.6 0.08 0.48 0.48 95 1021.4
20260906001517 10 15 0.0 3.2 0.08 0.48 0.48 96 1021.4
20260906001018 10 50 1.6 1.6 0.05 0.46 0.46 96 1021.3
20260906000418 10 36 0.0 1.6 0.05 0.46 0.46 96 1021.4
20260905235918 10 348 1.6 4.8 0.05 0.46 0.46 96 1021.5
20260905235317 10 10 0.0 3.2 0.05 0.46 0.46 96 1021.0